Location: Jackson Park
(37.2862°N, 79.9123°W)
Time: 11:27:32
(UTC+00:00)

S-56A Canister/Altair - Pass Details

Date: 17 May 2026
Orbit: 632 x 2484 km, 38.9° (Epoch: 9 June)

Event Time Altitude Azimuth Distance (km) Brightness Sun altitude
Rises 01:12:06 0° 245° (WSW) 3,266 11.2 -9.4°
Reaches altitude 10° 01:14:44 10° 242° (WSW) 2,189 10.3 -9.9°
Maximum altitude 01:19:30 66° 161° (SSE) 697 7.1 -10.7°
Drops below altitude 10° 01:23:54 10° 79° (ENE) 2,022 9.3 -11.4°
Enters shadow 01:24:58 - 77° (ENE) 2,459 9.7 -11.5°
Sets 01:26:15 0° 76° (ENE) 2,992 - -11.8°
